sat.trackr.live / text

‹ back to catalog

STARLINK-32769

NORAD 62602 · 2025-008R

PAYLOAD ACTIVE UNKNOWN

§ Identity

Operator
Country
US
Launch date
2025-01-13
Launch site
AFETR
Launch vehicle
Mass (kg)
RCS (m²)

Purposes: comms

External: N2YO · Heavens-Above · Gunter

§ Orbital elements

Epoch: 2026-09-21T07:31:44.561280Z

Period
94.27 min
Inclination
43.0000°
Eccentricity
0.0001438
Mean motion
15.27587985 rev/d
Perigee alt
482.0 km
Apogee alt
484.0 km
Semi-major
6,861.2 km
B*
3.1999e-4
RAAN
253.0434°
Arg perigee
270.2540°
Mean anomaly
89.8147°
Rev number
9,554

§ Raw data

STARLINK-327691 62602U 25008R   26264.31371020  .00008556  00000+0  31999-3 0  99952 62602  43.0000 253.0434 0001438 270.2540  89.8147 15.27587985 95549

JSON: /api/v1/satellites/62602 · /tle

For live sub-satellite position, see the globe view (requires WebGL).

§ Visibility from observer

Set your observer location to see the next 7 days of passes ≥ 10°. The values pass through the URL so the page stays shareable.

No JS? Fill the form by hand. The geolocation button needs JavaScript.